Location: Unspecified
(0.0000°N, 0.0000°E)
Time: 15:53:14
(UTC+00:00)

Vanguard 2 - Pass Details

Date: 11 December 2017
Orbit: 553 x 2939 km, 32.9° (Epoch: 22 July)

Event Time Altitude Azimuth Distance (km) Brightness Sun altitude
Rises 11:57:23 0° 235° (SW) 6,583 12.5 66.9°
Reaches altitude 10° 12:02:08 10° 234° (SW) 5,352 12.2 66.9°
Maximum altitude 12:17:11 90° 144° (SE) 1,874 11.0 66.2°
Drops below altitude 10° 12:26:06 10° 55° (NE) 3,341 10.7 65.6°
Sets 12:28:24 0° 55° (NE) 4,061 11.0 65.4°
